Regional Weather Roundup
Issued by NWS Charleston, SC

Current Version | Previous Version | Graphics & Text | Print | Product List | Glossary On
Versions: 1 2 3 4 5 6 7 8 9 10 11 12 13 14 15 16 17 18 19 20 21 22 23 24 25 26 27 28 29 30 31 32 33 34 35 36 37 38 39 40 41 42 43 44 45 46 47 48 49 50
000
ASUS42 KCHS 161527
RWRCHS

REGIONAL WEATHER ROUNDUP
NATIONAL WEATHER SERVICE CHARLESTON SC
1000 AM EST MON JAN 16 2017

NOTE: "FAIR" INDICATES FEW OR NO CLOUDS BELOW 12,000 FEET WITH NO
SIGNIFICANT WEATHER AND/OR OBSTRUCTIONS TO VISIBILITY.

NOT ALL STATIONS ARE QUALITY CONTROLLED. USE DATA WITH CAUTION...
ESPECIALLY DEWPOINT OBSERVATIONS.

SCZ027-030-031-034>040-042>050-161600-
...SOUTHEAST SOUTH CAROLINA...

CITY           SKY/WX    TMP DP  RH WIND       PRES   REMARKS
N CHARLESTON   FOG       58  57  97 E6        30.37R VSB 1/4
WATERFRONT PRK   N/A     56  56 100 N5        30.36R
MOUNT PLEASANT LGT RAIN  57  57 100 CALM      30.38R
JOHNS ISLAND   FOG       59  59 100 N6        30.37R VSB 3/4
PINOPOLIS      NOT AVBL
MONCKS CORNER  FOG       54  54 100 NE6       30.38R VSB 3/4
SUMMERVILLE    FOG      N/A N/A N/A CALM      30.39R VSB 3/4
BEAUFORT MCAS  CLOUDY    58  56  93 E5        30.36R
BEAUFORT ARPT  CLOUDY    57  55  94 NE6       30.36R FOG
HILTON HEAD IS PTSUNNY   61  61 100 E5        30.36R
WALTERBORO     CLOUDY    59 N/A N/A NE3       30.38R
ALLENDALE      CLOUDY    59  55  88 CALM      30.36R

...SOUTHERN MIDLANDS AND PEE DEE...

CITY           SKY/WX    TMP DP  RH WIND       PRES   REMARKS
GEORGETOWN     CLOUDY    52  52 100 NE6       30.41R FOG
KINGSTREE      CLOUDY    52  52 100 NE3       30.40R FOG
ORANGEBURG     FOG       55  55 100 E6        30.38R VSB 1/2
BARNWELL         N/A     59  57  94 NE7       30.37R FOG
AIKEN          FOG       52  50  93 NE5       30.41R VSB<1/4
MANNING        CLOUDY    54  54 100 NE3       30.40R FOG
COLUMBIA       CLOUDY    57  54  89 NE6       30.39R FOG
SUMTER         CLOUDY    54  52  94 E7        30.39R
FLORENCE       FOG       51  51 100 NE6       30.42R VSB 1/2
MYRTLE BEACH   CLOUDY    54  48  82 NE12      30.42R FOG
N MYRTLE BEACH CLOUDY    53  49  86 NE12      30.40R

$$

GAZ063-065-086>088-099>101-113>116-118-119-134>141-150-161600-
...SOUTHEAST GEORGIA...

CITY           SKY/WX    TMP DP  RH WIND       PRES   REMARKS
SAVANNAH ARPT  PTSUNNY   63  57  82 NE5       30.36R
HUNTER AAF     PTSUNNY   61  61 100 NE5       30.33R
FORT STEWART   CLOUDY    62  58  86 CALM      30.33R
STATESBORO     PTSUNNY   64  60  88 SE5       30.36R
SYLVANIA       MOSUNNY  N/A N/A N/A SE3       30.37R
CLAXTON        FAIR     N/A N/A N/A CALM      30.36R

...CSRA...CENTRAL AND FAR SOUTHEAST GEORGIA...

CITY           SKY/WX    TMP DP  RH WIND       PRES   REMARKS
THOMSON        CLOUDY    59  57  95 CALM      30.41R
AUGUSTA-BUSH   PTSUNNY   59  53  80 N6        30.35R
AUGUSTA-DANIEL PTSUNNY   60  53  77 E3        30.36R
SWAINSBORO     FAIR      68  59  73 S5        30.36R
VIDALIA        SUNNY     70  63  78 S3        30.35R
EASTMAN        CLOUDY    67  53  59 S5        30.37R
HAZLEHURST     FAIR      70  63  78 S3        30.33R
ALMA           SUNNY     67  60  78 SE7       30.33R
WAYCROSS       SUNNY     71  65  82 CALM      30.33S
JESUP          FAIR      68  59  73 E3        30.34S
BAXLEY         FAIR      70  64  83 SE6       30.33R
BRUNSWICK      SUNNY     70  64  83 NE5       30.35R
SAINT SIMONS   SUNNY     70  62  76 NE3       30.32R

$$

SCZ027-028-034-036>038-045-046-048>050-GAZ119-141-161600-
...LAKE AND SUPPLEMENTAL COASTAL OBSERVATIONS...

STATION/POSITION TIME  TEMP    WIND        PRES    WAVE   SWELL
                       AIR SEA DIR/SP/G            HT/PER HT/PER/DIR
                 (UTC) (F)     (DEG/KT/KT) (MB)    (FT/S) (FT/S/D)
WINYAH BAY       1445   52      40/ 10     1029.0R
LAKE MURRAY      1450   55      70/  2/  5 1028.4R
ACE BASIN NERRS  1445   58      40/  2     1028.0R
FORT PULASKI     1500   58 55   60/ 12/ 16 1028.2
SAPELO ISLAND    1500   65      20/  4     1027.0

$$

ANZ835-935-AMZ111-154-330-350-352-354-370-450-454-472-161600-
...C-MAN AND BUOY OBSERVATIONS...

STATION/POSITION TIME  TEMP    WIND        PRES    WAVE   SWELL
                       AIR SEA DIR/SP/G            HT/PER HT/PER/DIR
                 (UTC) (F)     (DEG/KT/KT) (MB)    (FT/S) (FT/S/D)
BUOY 41004       1450   69 71   30/ 10/ 10 1026.8R   4/10   3/110/10
BUOY 41008       1450   62 60   50/  6/  8 1026.7R   2/11   2/110/11
FOLLY BEACH CMAN 1500   56      20/  9/ 11 1028.9R
CAPERS NEARSHORE 1408   53 54   40/ 14/ 16 1027.6R
FRIPP NEARSHORE  1508   56 56   50/ 12/ 14 1027.7R


STATION/POSITION TIME  TEMP    WIND        PRES    WAVE   SWELL
                       AIR SEA DIR/SP/G            HT/PER HT/PER/DIR
                 (UTC) (F)     (DEG/KT/KT) (MB)    (FT/S) (FT/S/D)
5E ST. MARYS GA  1500      62                N/A     2/12   2/110/12
FRYING PAN BUOY  1510   63 71   30/ 16/ 19 1028.5
BUOY 41025       1450   58 74   30/ 17/ 19 1029.4R   4/ 5   2/ 70/ 8
CAPE LOOKOUT NC  1500   49      20/ 15/ 17 1029.8R
BUOY 41002       1450   69 71   80/  4/  6 1027.9R   4/ 8   3/ 40/ 8
BUOY 41010       NOT AVBL
ST AUGUSTINE FL  1500   66 64   10/  5/  5 1027.7R


$$




USA.gov is the U.S. government's official web portal to all federal, state and local government web resources and services.